Regional Weather Roundup
Issued by NWS

Home | Current Version | Previous Version | Text Only | Print | Product List | Glossary On
Versions: 1 2 3 4 5 6 7 8 9 10 11 12 13 14 15 16 17 18 19 20 21 22 23 24 25 26 27 28 29 30 31 32 33 34 35 36 37 38 39 40 41 42 43 44 45 46 47 48 49 50
000
ASUS44 KFWD 252215
RWRTX
NORTH TEXAS HOURLY WEATHER ROUNDUP
NATIONAL WEATHER SERVICE FORT WORTH TX
400 PM CST SUN JAN 25 2015

NOTE: "FAIR" INDICATES FEW OR NO CLOUDS BELOW 12,000 FEET WITH NO
SIGNIFICANT WEATHER AND/OR OBSTRUCTIONS TO VISIBILITY.

TXZ118-119-252300-
DALLAS/FORT WORTH METROPLEX

CITY           SKY/WX    TMP DP  RH WIND       PRES   REMARKS
DFW AIRPORT    MOSUNNY   62  24  23 N26G33    30.05R
DALLAS LOVE    MOSUNNY   64  26  23 NW25G32   30.05R
FTW MEACHAM    SUNNY     63  26  24 NW18G33   30.07R
DAL-EXECUTIVE  SUNNY     65  24  21 NW24G31   30.05R
FTW-ALLIANCE   MOSUNNY   62  23  22 NW24G33   30.06S
FTW-SPINKS     SUNNY     63  25  23 NW22G31   30.09R
ARLINGTON      SUNNY     64  22  20 NW18G37   30.06R
GRAND PRAIRIE  SUNNY     64  28  25 NW13G23   30.08R
ADDISON        SUNNY     63  23  22 NW18G30   30.06R
MESQUITE       SUNNY     63  27  25 W21G26    30.05R
LANCASTER      SUNNY     62  29  28 NW18G24   30.06R
$$

TXZ091>094-102>105-117-120-121-131>134-252300-
NORTH CENTRAL TEXAS

CITY           SKY/WX    TMP DP  RH WIND       PRES   REMARKS
SHRMAN/DENISON SUNNY     61  30  31 NW24G33   30.04R
GAINESVILLE    SUNNY     61  22  22 NW22G31   30.06R
BOWIE          SUNNY     61  24  24 NW22      30.07S
BRIDGEPORT     SUNNY     62  30  30 NW17G25   30.10S
DECATUR        SUNNY     61  22  22 NW20G31   30.07S
DENTON         SUNNY     61  26  26 NW18G28   30.05R
MCKINNEY       SUNNY     63  25  23 NW21G29   30.03S
GREENVILLE     SUNNY     63  23  22 NW22G28   30.02S
ROCKWALL       SUNNY     62  28  27 NW21G30   30.02S
TERRELL        SUNNY     63  28  26 NW21G29   30.04R
WAXAHACHIE     SUNNY     63  31  29 NW22G30   30.07R
CLEBURNE       SUNNY     64  23  20 NW22      30.10R
GRANBURY       SUNNY     65  23  20 NW17G26   30.10S
$$

TXZ083>090-098>101-113>116-127>130-139>142-154-155-252300-
WESTERN NORTH TEXAS

CITY           SKY/WX    TMP DP  RH WIND       PRES   REMARKS
WICHITA FALLS  SUNNY     63  21  20 NW30G38   30.09R
WF-KICKAPOO    SUNNY     55  13  18 NW13G30   30.10R
VERNON         SUNNY     65  10  11 N17G25    30.12R
ABILENE        SUNNY     63  27  25 N20       30.17R
ABILENE-DYESS  SUNNY     62  29  28 N16G25    30.17R
BRECKENRIDGE   SUNNY     65  24  20 NW14G22   30.15R HAZE
GRAHAM         SUNNY     64  29  27 NW18G26   30.11R
MINERAL WELLS  SUNNY     63  23  21 NW23G33   30.08S
STEPHENVILLE   SUNNY     64  23  21 NW15G29   30.14R
COMANCHE       SUNNY     64  30  28 N16       30.15R
BROWNWOOD      SUNNY     64  25  22 NW16G26   30.16S
COLEMAN        SUNNY     63  34  34 N18G26    30.18R
BRADY          SUNNY     64  30  27 NW14      30.17R
$$

TXZ143>147-156>162-174-175-252300-
CENTRAL TEXAS

CITY           SKY/WX    TMP DP  RH WIND       PRES   REMARKS
WACO           SUNNY     67  24  19 N20G28    30.08R
WACO-MCGREGOR  SUNNY     66  30  26 N21G31    30.10R
HILLSBORO      SUNNY     65  24  21 NW24G30   30.08R
CORSICANA      SUNNY     66  23  19 NW20      30.06R
MEXIA          SUNNY     66  22  18 NW16G28   30.05R
HEARNE         SUNNY     68  33  26 W14G20    30.09R
CAMERON        SUNNY     69  30  23 NW14G24   30.09R
TEMPLE         SUNNY     68  27  21 NW18G26   30.09R
KILLEEN        SUNNY     67  24  19 N18G25    30.12R
KILLEEN-SKYLRK SUNNY     68  25  19 NW16G24   30.10R
FORT HOOD      SUNNY     68  23  18 MISG      30.10R
GATESVILLE     SUNNY     66  27  22 N14G23    30.13R
HAMILTON       SUNNY     66  25  21 N16G24    30.14R
LAMPASAS       SUNNY     65  28  24 NW9       30.13R
$$

TXZ095>097-106>112-122>126-135>138-148>153-164>167-252300-
EAST TEXAS

CITY           SKY/WX    TMP DP  RH WIND       PRES   REMARKS
PARIS          SUNNY     61  30  31 NW20G31   29.98R
SULPHUR SPRNGS SUNNY     61  27  27 NW24G31   30.02R
MOUNT PLEASANT SUNNY     62  29  27 NW22G30   29.98S
GILMER         SUNNY     62  28  27 W18G30    29.97R
MINEOLA        SUNNY     63  21  20 NW16      30.01R
TYLER          SUNNY     64  26  23 W21G30    30.00R
LONGVIEW       MOSUNNY   65  26  23 NW25G33   29.96R
MARSHALL       SUNNY     66  29  25 NW21G26   29.97R
ATHENS         SUNNY     63  23  22 NW10G24   30.02R
PALESTINE      SUNNY     67  28  22 W16G24    30.03R
HENDERSON      SUNNY     65  26  23 W14G26    29.98S
NACOGDOCHES    SUNNY     66  27  22 NW25G35   29.98R
LUFKIN         SUNNY     70  31  23 W23       29.98R
$$

SUPPLEMENTAL OBSERVATIONS (CENTRAL)

CITY           SKY/WX    TMP DP  RH WIND       PRES   REMARKS
LAKE TEXOMA      N/A     57  32  38 NW28        N/A
CADDO GRASSLND   N/A     63  25  23 NW12G22     N/A
PAT MAYSE LAKE   N/A     59  28  31 NW21        N/A
GREENVILLE       N/A     63  25  23 NW21G28     N/A
CEDAR HILL       N/A     64  28  25 NW10G23     N/A
PALESTINE        N/A     66  27  22 NW13G28     N/A
MCGREGOR         N/A     68  25  19 NW12G24     N/A
TEMPLE           N/A     68  28  22 NW6         N/A
$$

SUPPLEMENTAL OBSERVATIONS (WEST)

CITY           SKY/WX    TMP DP  RH WIND       PRES   REMARKS
MILLERS CREEK    N/A     64  28  25 N16G26      N/A
POSSUM KINGDOM   N/A     63  25  23 NW16G25     N/A
LBJ GRASSLAND    N/A     63  25  23 NW10G25     N/A
GRANBURY         N/A     64  23  20 NW21G33     N/A
HAMBY            N/A     63  28  27 N12G20      N/A
IVIE RESERVOIR   N/A     64  30  27 N13         N/A
COLORADO BEND    N/A     66  25  20 N9G18       N/A
$$

SUPPLEMENTAL OBSERVATIONS (EAST)

CITY           SKY/WX    TMP DP  RH WIND       PRES   REMARKS
CLARKSVILLE      N/A     61  30  31 NW21G31     N/A
TEXARKANA        N/A     61  30  31 NW14G28     N/A
LINDEN           N/A     63  30  29 NW13G26     N/A
CADDO LAKE       N/A     64  30  27 NW9G23      N/A
GILMER           N/A     63  27  25 NW16G30     N/A
HENDERSON        N/A     66  25  20 NW15G35     N/A
LUFKIN           N/A     70  32  24 MISG        N/A
N SABINE NF      N/A     68  27  21 MISG        N/A
S SABINE NF      N/A     66  32  28 W6G17       N/A
$$

SUPPLEMENTAL OBSERVATIONS ARE A COLLECTION OF AUTOMATED INSTRUMENTS
THAT ARE MAINTAINED BY A VARIETY OF FEDERAL AND STATE AGENCIES.
CERTAIN ELEMENTS...SUCH AS HUMIDITY VALUES AND SUSTAINED WIND
SPEEDS...MAY BE APPROXIMATED.




USA.gov is the U.S. government's official web portal to all federal, state and local government web resources and services.